Dewpoint
63 44 47 56 52 50 41 44 38 37 31 22 18 23 34 43 44 49 54 51 54 54 55 56 61 60 61 60 58 60 58 61 61 60 59 58 60 60 60 58 58 58 59 61 59 59 60 59 58
56 43 50 53 45 37 38 38 38 34 28 25 23 25 29 43 48 52 49 51 53 53 54 56 61 59 59 59 58 59 58 58 59 59 59 58 60 57 58 58 58 58 59 58 58 58 59 59 57
56 42 47 47 41 34 37 38 35 31 27 25 23 22 31 44 48 51 49 50 52 53 54 56 61 60 60 60 59 60 59 59 57 58 57 56 57 58 58 57 58 57 57 57 56 57 58 57 56
44 45 40 38 36 36 37 36 34 31 28 25 19 27 39 43 44 48 49 49 49 52 54 59 60 60 60 60 58 59 57 57 57 56 57 57 57 57 57 57 56 55 55 55 55 55 55 55 54
46 44 39 34 31 29 35 36 35 34 32 27 19 25 39 45 48 47 47 48 49 51 56 57 60 61 59 60 59 59 58 58 57 56 56 55 56 54 53 54 54 53 52 52 53 53 53 54 54
45 42 34 29 29 28 34 36 35 36 29 25 19 22 42 45 47 46 47 48 48 52 56 58 60 60 59 59 58 58 57 57 56 55 55 55 54 51 51 49 49 50 50 50 51 51 52 51 52
45 42 36 31 28 29 34 35 32 33 30 28 28 22 42 43 47 46 45 46 46 50 55 57 56 59 60 60 58 58 57 57 55 53 52 52 50 49 50 49 48 48 49 49 49 50 52 48 49
47 45 37 37 28 32 36 34 33 35 30 30 29 23 37 42 46 45 44 45 44 46 55 55 55 55 56 55 59 58 58 56 55 53 50 49 48 48 46 49 48 47 46 46 48 50 52 46 42
52 42 36 34 33 34 35 35 34 31 29 30 30 33 38 45 46 45 44 44 44 45 48 53 54 54 53 55 56 57 58 57 56 54 51 46 46 47 48 49 49 50 50 50 48 46 45 44 44
44 43 37 33 34 35 39 38 34 32 30 29 32 35 43 44 43 44 44 44 43 44 43 48 52 52 52 53 56 56 55 55 54 52 52 50 46 44 43 47 46 50 50 48 45 44 45 47 43
42 40 38 36 35 38 37 37 38 35 35 32 31 36 43 43 42 42 42 43 42 43 43 46 49 51 51 52 55 54 55 54 52 51 51 49 43 41 36 44 43 47 48 44 47 46 45 41 36
33 32 35 39 38 39 37 36 34 36 37 38 38 37 41 43 41 40 40 41 42 44 45 46 48 50 51 50 52 52 51 52 50 50 48 46 43 42 41 41 44 42 44 41 40 41 38 36 36
25 25 25 32 34 37 36 35 35 36 36 36 34 38 39 42 41 40 39 39 41 43 45 47 49 49 48 48 49 49 48 49 47 48 47 46 46 44 42 41 40 41 41 40 40 40 39 38 36
24 25 23 24 27 29 30 30 33 34 34 32 35 33 38 40 41 41 39 37 38 41 45 47 49 50 49 47 48 48 47 47 47 46 46 44 45 44 44 42 41 40 40 41 40 40 39 39 38
26 23 23 22 20 25 26 24 24 26 29 30 30 32 33 37 39 39 39 37 36 39 44 46 48 50 50 48 49 50 50 49 48 47 45 42 42 43 41 42 43 42 41 40 40 40 39 41 42
17 20 22 22 20 25 22 20 23 20 22 27 27 26 31 33 35 36 38 37 36 37 42 45 47 49 50 49 51 51 50 50 50 48 47 44 43 43 43 42 42 44 43 43 43 42 43 43 43
20 17 21 25 23 24 23 24 23 23 20 18 19 18 21 26 31 32 36 37 36 36 40 44 46 48 49 48 49 51 49 50 50 49 48 46 45 45 45 45 44 43 44 44 44 43 43 43 43
17 15 14 17 23 22 22 22 21 19 17 19 18 17 17 17 20 28 34 36 36 36 37 43 45 46 48 49 48 49 50 50 50 49 48 47 47 45 45 46 44 43 44 44 45 43 44 43 44
19 16 16 17 20 20 19 18 17 19 17 18 18 17 17 15 17 27 32 36 38 38 37 40 44 45 46 48 47 47 48 49 49 50 48 47 47 47 46 46 44 44 44 44 44 45 44 44 46
20 17 16 18 19 15 16 17 19 14 16 17 17 16 17 18 16 21 31 35 37 38 39 40 43 45 45 47 47 47 47 48 49 50 49 48 48 47 46 46 46 44 45 44 44 43 44 44 44
16 16 15 14 18 18 17 18 20 22 22 22 18 17 19 20 18 18 26 33 37 37 39 40 41 45 45 47 48 48 48 49 49 49 49 49 48 48 45 45 46 45 45 46 45 45 45 45 46
18 21 20 20 19 15 15 14 19 20 20 21 21 23 24 24 22 22 22 31 36 37 40 41 42 43 44 46 46 47 46 47 48 49 50 50 48 48 47 45 44 44 46 46 46 47 47 46 45
22 26 23 23 21 20 17 12 26 19 18 19 21 23 24 25 27 27 27 28 34 38 40 41 43 43 43 45 46 48 47 48 49 50 49 50 49 47 46 45 44 43 45 45 45 44 46 47 46
23 21 21 22 23 18 16 14 17 18 18 20 22 23 25 25 27 29 31 31 31 39 42 44 43 44 45 46 47 48 47 47 49 49 49 50 50 49 47 46 45 44 44 44 45 45 44 45 46
24 22 21 21 22 18 17 13 18 19 21 22 23 25 26 26 29 31 32 33 35 38 43 45 45 45 45 46 47 48 49 49 48 48 49 50 49 50 48 47 46 46 45 45 46 45 46 45 45
21 22 19 13 13 13 21 17 19 20 21 23 26 28 28 28 29 32 34 33 32 35 43 44 44 45 46 46 47 48 49 51 50 50 50 50 49 49 49 48 47 46 46 47 46 46 46 46 46
22 20 23 17 13 14 16 14 18 19 19 23 26 28 29 29 30 31 32 33 31 31 34 42 44 45 46 46 48 48 49 50 50 49 50 51 49 49 49 48 47 47 46 46 46 46 46 46 47
22 22 20 19 17 18 10 11 16 18 19 23 25 27 29 30 30 32 33 33 35 32 32 36 41 44 45 46 47 48 48 49 49 50 50 50 50 49 48 48 47 46 45 45 46 46 46 47 47
22 19 19 19 19 16 16 13 15 21 25 24 26 29 32 34 34 34 35 35 35 36 35 33 36 39 41 44 45 46 48 48 48 49 50 50 50 50 48 48 47 47 45 44 45 46 47 46 47
20 21 20 20 21 19 20 20 21 22 26 27 29 30 32 34 35 35 36 36 36 36 36 35 35 34 37 39 41 44 46 47 47 47 48 49 49 50 49 47 47 46 46 44 43 44 45 46 47
Lifted_Index
4 5 5 2 0 -0 0 1 2 3 5 7 9 9 7 6 5 5 7 9 9 10 10 10 10 10 10 10 11 11 11 10 10 10 10 10 10 10 10 10 11 11 10 10 10 10 10 10 11
4 5 5 3 1 1 -0 0 2 3 5 7 9 9 8 6 6 6 8 9 9 10 10 10 9 10 10 10 10 10 10 10 10 10 10 10 10 10 10 10 11 11 10 10 10 10 10 11 11
4 5 5 3 2 1 -0 0 2 3 5 7 8 8 8 7 6 7 8 9 9 9 10 9 9 9 9 9 9 10 10 10 10 10 10 10 10 10 10 11 11 11 11 11 11 11 11 12 12
5 5 5 4 2 1 0 1 2 3 5 7 8 8 7 7 7 8 8 9 9 9 9 9 9 9 8 8 8 9 9 10 10 10 10 10 10 11 11 11 11 12 12 12 12 12 12 13 13
6 5 5 4 3 2 1 1 2 3 4 6 8 8 7 7 8 8 9 9 9 9 8 8 8 8 8 8 8 8 8 9 10 10 10 10 11 12 12 12 13 13 13 13 13 13 13 13 13
5 5 5 4 3 2 1 1 2 3 4 5 7 8 7 7 8 8 9 9 9 8 8 7 7 7 7 7 7 7 8 8 9 10 10 11 12 13 13 14 14 14 14 14 14 14 14 14 14
5 5 4 4 3 2 1 1 2 3 4 5 7 7 7 7 8 8 8 9 9 8 7 6 7 6 6 6 7 7 8 8 10 11 12 12 13 14 14 15 15 15 15 15 15 14 14 15 16
4 4 4 3 3 2 1 2 2 3 4 5 6 7 7 7 7 8 8 8 8 8 6 6 6 6 6 6 6 7 7 8 10 11 13 14 14 15 15 15 15 15 15 15 15 15 15 16 17
4 4 3 3 2 2 1 2 2 3 3 4 5 6 7 7 7 7 8 8 8 8 7 6 6 6 7 7 6 7 7 8 9 11 13 14 15 15 16 16 15 15 15 15 16 16 16 17 18
4 4 3 3 2 2 2 2 2 3 3 3 4 5 6 7 7 7 7 8 8 8 8 7 6 6 6 6 7 7 7 8 9 11 12 14 15 15 16 17 16 15 15 16 16 17 17 18 18
4 4 3 3 2 2 2 2 2 3 3 3 4 4 5 6 7 7 7 7 8 8 8 8 7 6 6 6 7 7 8 9 10 11 12 13 15 16 17 17 17 17 17 17 17 17 17 18 18
6 5 4 4 3 2 2 2 2 3 3 3 4 4 5 5 6 6 7 7 8 8 8 8 7 7 7 7 7 8 8 9 10 11 13 14 15 16 17 17 17 17 17 17 17 17 18 18 18
7 7 6 5 4 4 3 3 3 3 3 3 4 4 5 5 5 6 7 7 8 8 8 8 8 7 8 8 9 9 10 10 11 12 13 14 15 16 16 17 17 18 18 18 17 17 18 18 18
8 7 7 7 6 5 5 4 4 4 4 4 4 5 5 5 5 6 6 7 8 8 8 8 8 8 8 9 9 10 11 11 12 13 14 15 15 15 16 16 17 17 18 18 18 17 17 17 17
7 7 7 7 7 7 6 5 5 6 6 6 5 5 5 5 5 6 6 7 7 8 8 8 8 8 8 9 10 10 11 12 13 13 14 15 15 15 16 16 17 17 17 17 17 17 17 17 17
7 7 6 6 6 7 6 5 5 6 7 7 7 6 6 6 6 6 6 6 7 8 8 8 8 8 8 9 10 11 11 12 12 13 13 14 15 15 16 16 17 17 17 17 17 17 16 16 16
6 6 6 6 6 7 6 5 6 7 8 8 8 8 7 7 7 7 6 7 7 8 8 8 8 8 8 9 10 11 11 12 12 12 13 13 14 15 15 16 16 17 17 17 17 16 16 16 15
6 5 5 6 6 6 6 5 7 8 8 8 8 8 8 8 8 8 7 7 7 8 8 8 8 8 8 10 11 11 12 12 12 12 12 13 14 14 15 16 16 16 17 16 16 16 16 15 15
6 5 5 6 7 6 6 5 7 8 8 8 8 9 9 9 9 8 8 8 8 8 8 8 8 8 9 10 11 11 12 12 12 12 12 12 13 14 15 15 16 16 16 16 16 15 15 14 14
6 5 5 6 7 6 6 6 7 7 7 7 8 9 9 9 9 9 8 8 8 8 8 8 8 8 9 10 11 11 12 12 12 12 12 12 13 13 14 15 15 15 15 15 15 15 14 13 13
6 6 6 6 6 6 5 5 6 7 7 8 8 9 9 9 9 9 9 8 8 8 8 9 9 9 9 10 11 11 11 12 12 12 12 12 12 13 14 14 15 15 15 15 14 14 13 12 12
6 6 6 6 5 4 4 5 6 7 7 8 9 9 9 9 9 9 9 9 9 8 8 9 9 9 9 10 10 11 11 11 12 12 12 12 12 12 13 14 15 15 15 14 14 13 12 12 11
7 7 7 6 4 3 3 4 6 6 6 8 9 10 10 10 10 10 10 9 9 9 9 9 9 9 10 10 10 10 11 11 11 12 11 12 12 12 13 14 14 15 14 14 14 13 12 11 11
7 6 5 4 3 3 3 4 5 6 7 8 9 10 10 10 10 10 10 10 10 9 9 9 9 9 10 10 10 10 11 11 11 11 11 11 12 12 13 13 14 14 14 14 13 13 12 11 11
7 5 3 2 1 2 3 4 5 6 8 9 10 10 10 10 10 10 10 10 10 10 9 9 9 9 10 10 10 10 11 11 11 11 11 11 11 12 12 13 14 14 14 14 13 12 11 11 10
6 5 3 2 1 2 3 4 5 7 8 9 10 10 10 10 11 11 11 11 11 10 10 9 9 9 9 10 10 10 10 11 11 11 11 10 11 11 12 12 13 13 14 13 13 12 11 10 10
6 5 5 3 2 2 3 4 5 7 8 9 9 10 10 10 11 11 11 11 11 11 11 10 10 9 9 9 9 10 10 10 10 10 10 10 10 11 11 12 13 13 13 13 13 12 11 10 10
6 6 5 4 2 1 2 4 5 7 8 8 9 9 9 10 11 11 11 11 11 11 11 11 11 10 10 10 9 9 10 10 10 10 10 9 10 10 11 11 12 13 13 13 12 12 11 10 9
6 6 6 5 3 2 2 3 5 6 7 8 9 9 9 10 10 11 11 11 11 11 11 12 12 12 11 11 10 10 9 10 10 10 10 9 9 10 10 11 12 12 13 13 12 12 11 10 9
7 6 6 5 4 3 3 3 5 6 7 8 8 9 9 10 10 11 11 11 11 11 11 12 12 12 12 12 11 10 10 10 10 10 10 10 9 9 10 10 11 12 13 13 12 11 11 10 9